TimeCST,TemperatureF,Dew PointF,Humidity,Sea Level PressureIn,VisibilityMPH,Wind Direction,Wind SpeedMPH,Gust SpeedMPH,PrecipitationIn,Events,Conditions,WindDirDegrees,DateUTC
12:00 AM,70,67,88,29.80,2,Calm,Calm,,,,Mist,,2012-10-07 06:00:00
12:00 AM,66.2,64.4,94,29.98,6.2,ENE,3.5,-,N/A,Fog,Mostly Cloudy,60,2012-10-07 06:00:00
1:00 AM,66.2,62.6,88,29.94,-9999.0,NE,4.6,-,N/A,,Clear,40,2012-10-07 07:00:00
2:00 AM,64.4,60.8,88,29.92,-9999.0,ENE,5.8,-,N/A,,Clear,70,2012-10-07 08:00:00
3:00 AM,64,60,84,29.81,12,NE,3.5,,,,Clear,50,2012-10-07 09:00:00
3:00 AM,64.4,60.8,88,29.91,-9999.0,NE,3.5,-,N/A,,Clear,50,2012-10-07 09:00:00
4:00 AM,64.4,60.8,88,29.93,-9999.0,ENE,6.9,-,N/A,,Clear,60,2012-10-07 10:00:00
5:00 AM,66.2,60.8,83,29.94,-9999.0,ENE,3.5,-,N/A,,Clear,70,2012-10-07 11:00:00
6:00 AM,66,60,76,29.82,12,ENE,4.6,,,,Clear,70,2012-10-07 12:00:00
6:00 AM,66.2,60.8,83,29.95,-9999.0,ENE,4.6,-,N/A,,Clear,70,2012-10-07 12:00:00
7:00 AM,71.6,62.6,73,29.97,-9999.0,East,4.6,-,N/A,,Clear,80,2012-10-07 13:00:00
8:00 AM,75.2,62.6,65,29.99,-9999.0,ESE,8.1,-,N/A,,Clear,110,2012-10-07 14:00:00
9:00 AM,78,63,50,29.81,12,ESE,6.9,,,,Clear,120,2012-10-07 15:00:00
9:00 AM,78.8,62.6,57,29.98,-9999.0,ESE,6.9,-,N/A,,Clear,120,2012-10-07 15:00:00
10:00 AM,80.6,60.8,51,30.00,6.2,SE,6.9,-,N/A,,Mostly Cloudy,140,2012-10-07 16:00:00
10:16 AM,75.2,66.2,73,30.00,6.2,WSW,10.4,-,N/A,,Mostly Cloudy,240,2012-10-07 16:16:00
11:00 AM,75.2,66.2,73,29.99,6.2,WSW,9.2,-,N/A,,Mostly Cloudy,250,2012-10-07 17:00:00
12:00 PM,76,66,65,29.82,12,WSW,8.1,,,,Overcast,240,2012-10-07 18:00:00
12:00 PM,77.0,66.2,69,29.97,6.2,WSW,8.1,-,N/A,,Mostly Cloudy,240,2012-10-07 18:00:00
1:00 PM,77.0,68.0,74,29.94,6.2,WSW,10.4,-,N/A,,Mostly Cloudy,240,2012-10-07 19:00:00
2:00 PM,75.2,68.0,78,29.93,6.2,WSW,10.4,-,N/A,,Scattered Clouds,240,2012-10-07 20:00:00
3:00 PM,86,73,58,29.77,9,NW,4.6,,,,Haze,310,2012-10-07 21:00:00
3:00 PM,71.6,68.0,88,29.92,6.2,WSW,9.2,-,N/A,,Mostly Cloudy,250,2012-10-07 21:00:00
4:00 PM,71.6,68.0,88,29.93,6.2,SW,8.1,-,N/A,Rain,Rain Showers,230,2012-10-07 22:00:00
5:00 PM,69.8,68.0,94,29.95,5.6,West,9.2,-,N/A,Rain,Rain Showers,260,2012-10-07 23:00:00
6:00 PM,69,66,89,29.86,9,WSW,6.9,,,,Overcast,240,2012-10-08 00:00:00
6:00 PM,69.8,66.2,88,29.97,6.2,WSW,6.9,-,N/A,,Mostly Cloudy,240,2012-10-08 00:00:00
7:00 PM,68.0,66.2,94,30.00,6.2,WSW,6.9,-,N/A,,Mostly Cloudy,240,2012-10-08 01:00:00
8:00 PM,68.0,66.2,94,30.03,5.0,WSW,5.8,-,N/A,Fog,Light Drizzle,240,2012-10-08 02:00:00
9:00 PM,68.0,57.2,68,30.04,6.2,NW,5.8,-,N/A,,Mostly Cloudy,320,2012-10-08 03:00:00
10:00 PM,68.0,66.2,94,30.02,6.2,NNE,2.3,-,N/A,,Scattered Clouds,30,2012-10-08 04:00:00
11:00 PM,68.0,64.4,88,30.00,6.2,South,3.5,-,N/A,,Scattered Clouds,170,2012-10-08 05:00:00